EHI
0 0 0 0 0 0 0 0 0 0 0 0 1 2 3 3 4 6 11 15 16 14 13 15 15 12 10 13 14 14 14 15 16 16 12 6 3 3 2 1 1 1 2 3
0 0 0 0 0 0 0 0 0 0 0 0 0 1 2 3 4 6 11 14 14 12 10 11 12 11 11 12 13 12 12 13 13 13 10 6 3 3 2 1 0 0 1 2
0 0 0 0 0 0 0 0 0 0 0 0 0 0 1 4 6 7 9 11 10 7 6 6 7 9 11 12 12 10 8 8 10 10 8 6 4 3 1 0 0 0 0 1
0 0 0 0 0 0 0 0 0 0 0 0 0 0 1 4 6 5 5 6 5 3 2 2 3 5 8 9 9 8 6 5 7 8 7 6 4 2 1 0 0 0 0 0
0 0 0 0 0 0 0 0 0 0 0 0 0 0 1 2 3 2 2 2 2 1 0 0 1 2 4 4 5 5 4 4 4 5 4 4 3 1 0 0 0 0 0 0
0 0 0 0 0 0 0 0 0 0 0 0 0 0 0 0 1 1 2 1 0 0 0 0 0 1 1 1 2 2 2 2 2 2 2 2 1 1 0 0 0 0 0 0
0 0 0 0 0 0 0 0 0 0 0 0 0 0 0 0 0 1 1 1 0 0 0 0 0 0 0 0 1 1 1 1 1 1 1 0 0 0 0 0 0 0 0 0
0 0 0 0 0 0 0 0 0 0 0 0 0 0 0 0 1 1 1 0 0 0 0 0 0 0 0 0 0 0 0 0 0 0 0 0 0 0 0 0 0 0 0 0
0 0 0 0 0 0 0 0 0 0 0 0 0 0 0 0 1 1 0 0 0 0 0 0 0 0 0 0 0 0 0 0 0 0 0 0 0 0 0 0 0 0 0 0
0 0 0 0 0 0 0 0 0 0 0 0 0 0 0 0 1 1 0 0 0 0 0 0 0 0 0 0 0 0 0 0 0 0 0 0 0 0 0 0 0 0 0 0
0 0 0 0 0 0 0 0 0 0 0 0 0 0 0 0 0 0 0 0 0 0 0 0 0 0 0 0 0 0 0 0 0 0 0 0 0 0 0 0 0 0 0 0
0 0 0 0 0 0 0 0 0 0 0 0 0 0 0 0 0 0 0 0 0 0 0 0 0 0 0 0 0 0 0 0 0 0 0 0 0 0 0 0 0 0 0 0
0 0 0 0 0 0 0 0 0 0 0 0 0 0 0 0 0 0 0 0 0 0 0 0 0 0 0 0 0 0 0 0 0 0 0 0 0 0 0 0 0 0 0 0
0 0 0 0 0 0 0 0 0 0 0 0 0 0 0 0 0 0 0 0 0 0 0 0 0 0 0 0 0 0 0 0 0 0 0 0 0 0 0 0 0 0 0 0
0 0 0 0 0 0 0 0 0 0 0 0 0 0 0 0 0 0 0 0 0 0 0 0 0 0 0 0 0 0 0 0 0 0 0 0 0 0 0 0 0 0 0 0
0 0 0 0 0 0 0 0 0 0 0 0 0 0 0 0 0 0 0 0 0 0 0 0 0 0 0 0 0 0 0 0 0 0 0 0 0 0 0 0 0 0 0 0
0 0 0 0 0 0 0 0 0 0 0 0 0 0 0 0 0 0 0 0 0 0 0 0 0 0 0 0 0 0 0 0 0 0 0 0 0 0 0 0 0 0 0 0
0 0 0 0 0 0 0 0 0 0 0 0 0 0 0 0 0 0 0 0 0 0 0 0 0 0 0 0 0 0 0 0 0 0 0 0 0 0 0 0 0 0 0 0
0 0 0 0 0 0 0 0 0 0 0 0 0 0 0 0 0 0 0 0 0 0 0 0 0 0 0 0 0 0 0 0 0 0 0 0 0 0 0 0 0 0 0 0
0 0 0 0 0 0 0 0 0 0 0 0 0 0 0 0 0 0 0 0 0 0 0 0 0 0 0 0 0 0 0 0 0 0 0 0 0 0 0 0 0 0 0 0
0 0 0 0 0 0 0 0 0 0 0 0 0 0 0 0 0 0 0 0 0 0 0 0 0 0 0 0 0 0 0 0 0 0 0 0 0 0 0 0 0 0 0 0
0 0 0 0 0 0 0 0 0 0 0 0 0 0 0 0 0 0 0 0 0 0 0 0 0 0 0 0 0 0 0 0 0 0 0 0 0 0 0 0 0 0 0 0
0 0 0 0 0 0 0 0 0 0 0 0 0 0 0 0 0 0 0 0 0 0 0 0 0 0 0 0 0 0 0 0 0 0 0 0 0 0 0 0 0 0 0 0
0 0 0 0 0 0 0 0 0 0 0 0 0 0 0 0 0 0 0 0 0 0 0 0 0 0 0 0 0 0 0 0 0 0 0 0 0 0 0 0 0 0 0 0
0 0 0 0 0 0 0 0 0 0 0 0 0 0 0 0 0 0 0 0 0 0 0 0 0 0 0 0 0 0 0 0 0 0 0 0 0 0 0 0 0 0 0 0
0 0 0 0 0 0 0 0 0 0 0 0 0 0 0 0 0 0 0 0 0 0 0 0 0 0 0 0 0 0 0 0 0 0 0 0 0 0 0 0 0 0 0 0
Wind_Speed
3 5 1 4 4 3 2 0 3 3 1 4 5 6 4 4 5 5 5 5 5 5 5 6 6 6 6 6 5 4 4 3 2 1 1 1 1 1 1 1 1 1 0 0
5 2 5 4 3 3 2 1 2 2 3 4 6 5 3 3 4 4 4 4 4 4 6 7 8 7 7 6 6 5 4 3 2 1 0 1 2 1 1 1 2 2 2 1
3 5 2 2 2 2 2 4 4 3 3 5 6 2 2 2 3 4 4 4 4 4 5 6 7 7 7 7 6 5 4 4 4 3 2 2 2 1 2 2 2 3 3 3
3 4 1 1 2 4 3 5 5 4 3 1 2 2 3 3 3 4 3 3 3 4 5 5 7 7 8 7 6 6 6 5 4 4 3 3 2 2 2 2 2 4 5 4
3 2 1 2 4 5 4 2 4 3 4 2 1 2 4 3 4 6 5 3 3 4 5 5 6 6 7 7 7 6 7 7 6 5 4 3 3 2 2 2 4 4 4 4
4 3 3 3 1 3 5 7 6 5 5 1 1 3 4 4 5 6 6 5 4 4 5 5 5 5 6 7 7 7 7 7 7 6 5 4 4 3 3 4 3 3 3 3
4 4 2 1 2 3 5 6 4 5 4 4 1 2 6 2 2 6 8 7 6 5 4 4 5 6 6 7 7 7 7 7 7 7 6 6 5 5 4 3 3 3 3 3
1 4 3 0 3 4 3 7 7 4 4 4 2 3 4 0 1 5 7 8 7 5 4 4 4 5 5 6 6 7 7 7 7 7 6 6 6 4 3 3 3 3 3 3
4 4 3 1 1 6 5 3 5 7 2 1 4 4 3 3 4 7 8 8 7 6 5 5 4 5 5 5 6 6 6 7 7 7 6 6 5 4 4 4 4 3 3 3
6 2 3 2 4 5 4 7 5 5 4 2 4 4 4 6 7 8 8 8 7 6 5 5 4 4 5 5 5 6 6 7 6 7 6 5 5 5 4 4 5 5 5 4
4 3 3 3 1 2 3 4 5 4 4 5 3 7 4 6 9 10 9 8 8 7 6 4 3 4 4 5 5 6 6 6 6 6 6 6 6 5 5 5 5 5 5 5
3 5 0 3 2 1 3 5 6 4 3 4 3 8 2 2 6 9 9 9 8 8 6 5 4 4 4 5 5 5 5 6 5 5 6 6 6 6 6 6 5 5 6 5
3 5 2 5 5 3 1 2 4 5 5 4 4 7 1 3 6 8 10 10 9 8 7 5 4 4 4 4 4 5 5 5 5 5 6 6 6 6 6 6 5 6 6 6
4 4 5 6 6 3 2 2 4 5 4 4 7 7 3 4 7 8 9 10 9 8 7 6 4 4 4 3 4 4 5 4 4 5 6 6 6 5 5 5 6 6 6 6
4 2 2 3 4 2 3 3 4 5 7 7 7 6 6 7 9 9 10 10 10 8 7 6 5 4 3 3 4 4 4 4 4 5 6 5 5 5 5 6 6 6 6 7
4 2 1 2 2 1 3 4 3 3 3 4 3 4 1 6 8 10 10 11 10 9 8 7 6 5 4 3 3 4 4 4 4 5 5 5 5 6 6 6 6 6 6 6
2 2 2 3 4 3 4 3 3 3 3 5 5 5 6 7 10 11 11 10 10 9 8 8 6 5 5 3 3 3 3 3 4 4 5 5 5 5 5 6 6 6 6 6
3 2 2 0 3 3 6 2 2 3 1 2 2 3 6 6 7 6 7 9 9 9 8 7 6 5 4 4 4 3 4 4 4 4 5 4 5 5 5 6 6 6 5 5
5 5 3 2 1 5 5 1 2 2 2 2 5 7 8 10 8 4 4 6 7 8 7 6 6 5 5 5 4 4 4 4 4 4 4 4 4 4 5 5 5 4 5 5
3 3 4 3 2 4 5 2 1 3 3 2 7 11 11 8 5 4 6 8 9 8 7 7 6 6 5 4 4 4 4 4 4 3 3 4 4 4 4 4 4 4 4 5
2 2 3 3 3 7 4 3 1 1 6 3 8 11 10 5 4 8 11 9 9 9 9 8 7 6 5 4 5 5 4 4 3 3 4 5 4 4 4 4 4 5 5 5
2 2 3 3 3 7 3 1 3 4 1 4 7 8 7 8 10 11 11 11 11 10 9 8 7 6 4 4 5 5 4 2 3 4 5 5 4 4 4 5 5 5 5 5
2 4 4 5 6 4 2 1 1 2 3 4 6 9 11 11 11 11 11 11 10 9 8 7 7 6 4 4 5 5 3 3 4 5 5 5 5 5 4 4 4 4 4 4
2 1 1 2 4 3 2 1 1 2 3 6 9 12 11 11 12 11 11 10 9 8 8 7 7 6 4 3 4 4 3 4 5 5 4 4 5 5 5 4 3 3 3 3
4 1 1 3 3 2 2 1 2 5 8 11 10 9 12 14 13 12 11 10 8 8 6 6 6 6 5 4 4 3 4 5 5 5 4 4 4 4 4 4 3 3 1 1
4 5 4 5 4 3 3 1 4 7 8 11 12 10 10 12 13 11 10 8 8 8 7 6 6 5 5 4 3 3 4 5 5 4 3 3 3 3 3 3 3 6 4 4
Wind_Direction
62 73 169 213 189 175 145 184 287 285 294 93 110 119 115 99 98 100 96 90 78 59 38 37 41 44 47 47 51 55 46 30 44 58 92 93 87 65 66 73 63 57 95 122
41 312 235 201 181 172 169 237 281 343 48 104 113 109 110 100 118 126 116 100 85 62 43 35 33 36 40 40 34 40 39 32 37 50 114 100 98 81 75 50 40 25 26 39
178 243 211 171 200 181 207 194 208 179 67 73 111 93 133 103 99 105 99 95 82 76 56 38 33 32 35 35 28 26 26 30 31 43 71 76 69 55 46 37 31 17 16 26
232 256 201 216 233 166 246 219 183 161 131 188 147 196 225 179 163 155 135 105 87 77 66 46 34 28 28 27 25 28 30 32 33 45 65 73 76 66 35 26 25 21 20 18
252 233 216 249 236 173 206 99 119 117 127 94 40 146 265 173 204 196 169 148 114 85 72 57 41 30 25 26 25 24 32 35 30 39 61 76 73 62 44 37 39 29 15 15
248 253 212 219 232 145 125 72 59 54 72 80 228 164 251 211 213 183 168 156 131 100 80 65 46 39 30 27 25 26 33 32 30 35 43 57 71 67 57 40 35 25 14 12
328 321 277 176 87 48 86 86 36 3 10 256 269 193 245 237 212 173 167 154 135 116 97 74 53 41 31 28 27 30 34 30 27 34 38 42 51 52 52 39 38 33 21 11
325 308 302 187 169 162 146 136 154 196 223 272 320 242 255 112 93 131 135 132 125 111 97 81 62 48 37 32 31 33 32 28 26 32 36 45 45 41 35 34 37 40 30 15
184 261 301 354 122 131 128 132 155 131 143 287 283 281 290 134 122 130 134 134 129 117 103 88 69 52 42 36 34 35 37 33 27 26 33 41 45 47 41 39 42 36 26 28
166 222 295 314 66 45 118 139 101 114 143 257 290 272 245 202 187 168 160 152 138 124 109 94 77 60 45 37 37 41 44 41 32 29 34 40 39 44 46 49 50 46 35 34
137 160 316 19 98 162 104 90 99 109 146 160 254 270 234 206 185 178 170 154 143 134 121 106 90 72 58 45 43 43 41 39 35 34 36 37 35 41 53 55 52 54 48 41
126 118 264 283 278 179 151 159 148 150 203 173 187 265 317 196 164 157 152 144 137 128 119 111 101 83 66 51 46 46 43 41 35 36 42 41 37 43 52 51 48 55 56 48
123 109 71 349 346 6 76 135 137 123 120 155 183 261 36 92 123 138 141 141 136 129 123 117 106 89 76 62 54 53 47 45 41 46 50 47 43 45 50 49 46 51 57 53
108 116 158 193 222 225 251 189 154 135 153 201 221 239 219 163 149 142 140 140 137 134 133 129 114 96 85 73 66 58 48 46 51 54 54 50 44 46 51 52 50 51 56 56
83 127 206 235 244 216 234 236 193 188 192 197 233 224 227 188 167 152 144 141 139 141 141 136 126 113 97 84 75 66 54 47 52 59 58 52 49 51 54 56 54 55 56 56
45 96 42 315 298 238 253 253 219 208 194 208 227 249 190 130 130 141 149 151 151 153 149 141 135 127 117 105 91 78 63 51 56 63 62 56 55 56 55 57 59 60 57 55
23 90 75 298 321 7 289 256 204 194 192 180 211 223 142 140 156 160 159 159 158 156 150 147 144 139 132 120 102 89 74 66 65 62 62 59 59 60 56 64 64 61 59 59
154 110 124 282 12 257 253 270 181 164 226 195 168 137 148 140 128 127 144 153 152 149 146 144 141 134 123 111 99 89 81 77 70 62 56 55 63 65 63 66 65 60 59 60
170 147 134 127 227 286 299 309 161 158 269 165 141 129 119 116 95 91 126 141 143 140 136 133 130 126 118 113 108 98 84 79 74 67 60 60 70 72 69 70 67 66 70 64
110 116 125 136 173 250 265 298 157 99 292 176 148 147 145 137 141 172 146 127 122 122 124 125 122 116 113 110 106 100 89 85 78 74 71 68 74 80 78 75 73 70 74 75
76 93 145 167 216 263 268 281 119 167 257 177 155 155 155 156 154 138 132 122 122 121 121 121 120 116 114 111 102 92 86 84 81 80 78 77 72 74 76 70 70 80 80 75
184 160 182 159 200 257 313 72 173 219 179 137 141 141 128 114 113 122 126 126 125 122 123 124 120 113 110 114 110 102 94 91 84 79 77 74 67 66 74 74 73 78 86 82
214 195 194 195 217 254 299 255 277 150 136 137 136 131 128 125 127 128 128 129 128 128 126 122 120 112 102 106 114 111 107 102 91 82 79 78 72 61 64 77 81 76 78 87
292 142 155 274 278 297 313 337 40 94 121 124 131 132 132 130 133 130 131 130 128 126 125 123 121 117 107 102 109 117 110 102 97 91 82 79 79 67 57 57 66 78 82 92
258 210 222 265 276 330 356 31 93 90 101 109 113 120 132 132 135 135 134 135 131 127 124 127 129 129 125 113 103 105 109 106 98 92 87 81 79 81 69 57 47 59 55 161
216 191 192 235 217 191 238 154 124 121 123 128 124 120 128 135 137 135 135 134 132 130 128 126 126 128 125 118 108 102 110 116 111 99 93 92 91 84 82 78 55 42 50 61